SCP
0 0 0 0 0 0 0 -0 -0 -0 -0 -0 -0 0 -0 -0 0 -0 0 -0 -0 -0 -0 -0 0 0 0 0 0 0 0 0 -0 -0 0 -0 -0 -0 -0 -0 -0 -0 -0 -0 -0 -0 -0 -0 -0
0 -0 0 0 0 0 -0 -0 -0 -0 -0 -0 0 -0 -0 -0 -0 -0 -0 -0 -0 -0 -0 -0 -0 0 0 0 0 0 0 -0 -0 -0 -0 -0 -0 -0 -0 -0 -0 -0 -0 -0 -0 -0 -0 -0 -0
-0 -0 -0 -0 0 0 -0 -0 -0 -0 -0 0 -0 -0 -0 -0 -0 -0 -0 -0 -0 -0 -0 -0 0 0 0 0 0 0 -0 0 0 0 0 0 0 0 0 0 0 0 0 0 0 0 0 -0 -0
0 0 0 0 0 -0 0 0 0 0 -0 -0 -0 -0 -0 -0 -0 -0 -0 -0 -0 -0 -0 -0 0 0 0 0 0 -0 -0 0 0 0 0 0 0 0 0 0 0 0 0 0 0 0 0 0 -0
0 0 -0 -0 0 -0 0 0 0 -0 -0 0 -0 -0 -0 -0 -0 -0 -0 -0 -0 -0 -0 -0 0 -0 -0 -0 -0 -0 -0 0 0 0 0 0 0 0 0 0 0 0 0 0 0 0 0 0 -0
0 0 0 0 -0 -0 0 0 -0 -0 -0 -0 -0 -0 -0 -0 -0 -0 -0 -0 -0 -0 -0 -0 -0 -0 -0 -0 -0 -0 0 0 0 0 0 0 0 -0 -0 0 0 0 0 0 0 0 0 0 0
-0 -0 -0 -0 -0 -0 -0 -0 0 -0 -0 -0 -0 -0 -0 -0 -0 -0 -0 -0 -0 -0 -0 -0 -0 -0 -0 -0 0 -0 0 0 0 0 0 0 -0 -0 0 0 0 0 0 0 0 0 0 0 0
-0 -0 -0 0 0 0 0 0 0 -0 -0 -0 -0 -0 -0 -0 -0 -0 -0 -0 -0 -0 -0 -0 -0 -0 -0 -0 -0 0 0 0 0 0 0 0 -0 -0 0 0 0 0 0 0 0 0 0 0 0
-0 0 -0 0 0 0 0 -0 -0 -0 -0 -0 0 0 -0 -0 -0 -0 0 -0 -0 -0 -0 -0 -0 -0 -0 -0 -0 0 0 0 0 0 0 0 0 0 -0 0 0 0 0 0 0 0 0 0 0
0 0 -0 -0 0 -0 -0 0 0 0 -0 -0 -0 -0 -0 -0 -0 -0 -0 0 -0 -0 -0 -0 -0 -0 -0 -0 -0 -0 -0 0 -0 -0 -0 0 0 -0 0 -0 -0 -0 0 -0 -0 -0 -0 -0 0
0 0 -0 0 0 0 -0 0 -0 -0 0 -0 -0 -0 -0 -0 -0 -0 -0 -0 -0 0 -0 -0 -0 -0 -0 -0 -0 0 0 0 -0 -0 -0 -0 -0 -0 -0 0 0 0 -0 0 -0 -0 -0 -0 -0
0 -0 -0 0 0 0 -0 0 0 0 -0 -0 -0 -0 -0 -0 -0 -0 0 0 -0 0 -0 -0 -0 0 -0 -0 0 -0 0 0 0 0 0 0 0 0 0 0 0 0 0 -0 0 0 0 0 0
0 -0 0 0 -0 0 -0 0 0 -0 -0 -0 -0 -0 -0 -0 -0 -0 -0 0 -0 -0 -0 -0 -0 0 -0 0 0 0 0 0 0 0 0 -0 0 0 0 0 0 0 0 0 0 -0 0 -0 -0
0 0 -0 0 -0 0 -0 0 0 -0 -0 -0 -0 -0 -0 -0 -0 -0 -0 -0 0 -0 -0 -0 -0 0 0 0 0 -0 0 0 0 0 0 0 1 0 0 -0 -0 -0 0 0 0 0 0 0 -0
0 0 0 0 0 0 -0 -0 0 -0 -0 -0 -0 -0 -0 -0 -0 -0 -0 -0 0 -0 -0 0 0 -0 0 0 0 0 0 0 0 0 1 0 0 0 0 0 0 0 0 0 0 0 0 0 0
-0 0 0 -0 0 -0 0 0 0 0 -0 -0 -0 -0 -0 -0 -0 -0 0 0 0 0 -0 0 0 -0 0 0 0 0 -0 0 0 0 1 0 0 0 0 -0 0 0 0 0 0 0 0 0 -0
0 0 -0 -0 -0 0 -0 0 0 0 -0 0 0 -0 -0 -0 -0 -0 -0 0 0 0 0 0 0 -0 0 0 0 0 0 0 0 0 1 1 0 0 0 0 0 0 0 0 0 0 0 0 0
0 0 -0 0 0 0 0 0 -0 -0 0 0 0 -0 -0 -0 -0 -0 -0 -0 -0 0 -0 0 0 0 0 0 0 0 0 0 0 0 0 1 1 0 1 0 0 0 0 0 0 0 0 0 -0
-0 -0 0 -0 -0 0 0 -0 0 0 0 0 0 0 -0 -0 -0 0 -0 -0 -0 -0 -0 0 0 0 0 0 0 0 0 0 0 0 0 1 1 0 0 0 0 1 0 0 0 0 0 0 0
-0 0 0 0 -0 0 0 -0 0 -0 0 0 0 0 0 -0 -0 -0 0 0 -0 -0 0 0 0 0 0 0 0 0 0 0 0 0 0 1 1 1 1 0 0 0 0 0 0 0 0 0 -0
0 0 0 0 0 0 0 0 0 0 0 0 0 0 0 0 0 -0 -0 0 0 -0 -0 0 0 0 1 1 1 0 1 0 1 1 1 2 1 1 0 1 0 1 1 1 1 1 1 0 0
0 -0 -0 0 0 0 0 0 -0 -0 0 0 0 0 0 0 0 0 -0 -0 0 0 0 1 1 1 1 1 1 1 1 1 1 2 1 2 2 0 1 1 1 1 1 1 1 1 1 1 0
0 0 0 0 0 0 0 0 0 0 0 0 0 0 0 0 0 0 1 -0 -0 0 1 1 1 1 1 1 1 2 1 1 1 1 2 2 2 0 0 2 2 2 1 1 1 1 1 1 1
0 0 0 0 0 0 0 0 0 0 0 0 0 0 0 0 -0 0 0 1 1 0 0 2 2 2 2 2 2 2 2 2 2 3 5 4 2 1 1 1 2 1 1 1 1 1 1 1 1
0 0 0 0 0 0 0 0 0 0 -0 0 0 0 0 0 -0 0 0 1 2 1 0 1 2 4 3 3 2 2 5 3 4 5 5 3 2 2 1 1 2 2 1 1 1 1 1 1 1
0 0 0 0 0 0 0 0 0 -0 -0 0 0 0 0 0 0 0 0 0 1 1 2 3 2 3 4 4 3 3 4 8 10 8 5 2 1 1 1 1 1 1 1 1 1 2 1 1 1
0 0 -0 0 0 0 0 0 0 0 0 0 0 0 -0 0 -0 0 0 0 0 1 2 3 7 9 9 4 7 8 7 7 6 7 3 5 1 1 1 1 0 1 1 1 1 1 1 0 0
0 0 0 0 0 0 0 0 0 0 0 0 -0 -0 0 0 0 0 0 1 3 6 2 4 9 12 1 9 3 4 1 2 2 0 0 0 1 0 0 0 1 1 0 0 1 1 1 0 0
0 0 0 0 0 0 0 0 0 0 0 0 0 0 0 1 2 1 2 2 2 2 5 8 8 5 4 2 0 0 0 0 0 0 0 1 1 0 0 1 1 0 1 0 0 0 0 0 0
0 0 0 0 0 0 0 -0 0 0 -0 0 0 0 0 1 1 1 2 2 1 1 2 4 5 3 3 1 1 0 0 0 0 0 0 1 2 1 1 1 0 0 0 0 0 0 0 0 0
Wind_Speed_500mb
21 13 8 18 14 5 17 25 32 29 25 31 28 18 42 23 15 24 39 39 41 29 34 31 28 25 21 19 19 20 21 21 20 19 19 21 21 23 25 24 22 19 15 12 12 13 14 12 14
17 12 17 12 2 17 20 36 32 24 23 15 18 26 42 31 40 47 42 38 38 35 33 32 33 28 24 21 21 20 19 18 18 17 20 21 21 25 25 23 22 22 19 17 15 14 13 14 15
13 19 25 8 7 20 25 34 25 21 17 7 23 26 25 33 45 35 45 39 36 35 34 34 33 28 25 25 24 22 20 18 17 18 20 19 22 24 24 22 21 20 19 19 18 16 16 16 16
8 16 23 9 34 32 35 21 30 25 27 17 38 29 43 32 30 42 42 38 37 33 30 35 32 27 24 25 24 22 19 19 18 19 19 20 23 24 24 23 21 19 18 17 17 17 17 16 15
21 25 21 24 14 32 27 17 14 24 31 16 46 34 25 21 36 43 40 36 35 35 24 33 30 26 23 24 22 21 19 18 19 19 19 22 25 25 28 29 29 25 19 16 14 14 15 14 14
34 40 6 2 39 31 20 21 32 25 31 28 36 35 28 27 40 40 36 35 37 26 27 33 30 25 23 22 21 19 19 18 19 19 19 22 26 28 28 26 25 24 23 20 16 12 10 11 13
30 26 22 20 16 30 14 44 11 31 32 27 33 33 29 34 37 37 35 33 38 27 29 33 29 24 22 21 19 17 16 18 17 17 19 22 25 27 28 28 26 22 19 20 18 16 15 15 16
44 28 44 34 9 16 21 35 18 37 27 17 20 18 36 40 39 36 35 34 35 34 24 28 29 24 21 20 19 16 15 15 15 15 16 18 22 22 25 25 24 23 23 19 15 18 20 22 19
43 26 27 6 11 23 21 34 32 26 22 25 9 9 48 45 41 36 36 34 34 36 32 29 24 22 18 15 18 17 14 12 12 15 15 15 12 14 17 23 26 22 30 30 15 22 22 26 34
30 27 26 14 18 20 20 36 24 22 26 29 33 45 48 46 44 40 37 37 35 34 35 36 28 23 29 18 15 17 15 12 9 11 11 12 4 8 5 14 22 18 17 25 25 16 14 10 9
39 34 27 5 11 17 42 29 19 23 7 37 37 38 40 45 42 40 36 35 35 33 33 40 32 27 36 30 13 8 5 4 3 1 8 8 8 10 19 12 10 18 9 23 14 16 16 17 13
33 39 26 17 9 14 15 31 17 21 36 33 34 38 41 42 41 38 36 34 35 34 34 33 36 37 28 25 13 17 16 11 8 11 16 7 14 12 8 9 3 13 9 12 13 8 2 6 2
31 33 20 9 8 25 16 30 25 30 40 33 36 38 40 40 39 37 35 33 35 37 35 31 39 42 39 26 19 25 21 23 15 19 13 19 12 10 7 5 7 8 5 5 7 4 3 3 3
34 34 44 17 17 17 25 17 20 39 42 40 37 38 39 40 39 38 38 37 36 39 42 39 30 45 53 41 25 31 28 23 25 20 21 19 15 14 14 13 11 9 5 8 4 9 1 2 6
42 21 35 29 19 16 22 24 25 38 41 45 38 36 38 38 38 40 39 40 40 40 43 46 38 38 43 51 41 30 26 23 21 22 25 23 17 10 10 3 8 13 12 11 11 6 6 5 9
32 29 28 37 29 31 18 30 26 22 44 43 40 39 37 37 39 39 39 41 42 39 48 45 42 40 39 44 44 36 28 28 26 24 28 22 19 16 8 16 3 15 6 5 7 13 5 8 14
26 31 36 39 41 20 27 24 36 44 38 43 37 37 38 40 41 44 43 44 45 44 49 44 48 47 42 42 40 37 32 35 31 29 28 31 20 16 18 21 13 20 19 12 13 15 10 10 12
25 32 36 30 24 22 29 25 44 59 41 46 45 39 40 46 47 48 47 48 47 52 48 49 53 50 49 37 41 38 42 41 40 33 30 32 24 20 26 19 21 20 15 14 18 20 17 15 22
36 40 37 32 31 29 23 25 22 18 33 34 49 51 50 47 51 51 52 54 56 54 55 51 50 58 55 53 47 45 40 39 35 38 36 36 36 28 31 27 27 34 19 17 23 23 14 13 14
40 39 25 32 37 17 17 28 25 50 41 35 37 52 53 54 52 61 58 60 63 65 64 63 58 58 62 58 49 41 39 32 30 30 39 45 41 36 33 32 27 29 15 22 33 27 22 22 14
22 26 24 34 25 6 7 25 27 33 37 33 33 28 46 57 65 62 67 67 67 71 74 73 73 68 67 65 51 45 38 37 41 42 36 42 38 42 36 36 30 32 32 31 31 28 20 20 19
27 29 34 36 31 22 23 22 26 33 24 20 35 44 50 42 65 71 74 77 79 72 74 80 76 77 70 66 60 55 60 53 53 41 41 43 33 38 43 48 41 38 40 31 39 30 26 24 19
28 27 22 30 33 34 27 18 24 19 25 37 20 41 38 42 49 70 81 84 85 83 77 81 81 74 76 71 67 57 53 51 44 36 39 36 42 45 47 50 49 43 37 38 40 35 32 31 28
15 19 25 22 20 27 36 34 32 26 26 19 30 37 43 45 50 59 74 86 90 87 86 83 84 80 77 76 69 67 63 52 36 41 38 30 22 32 41 47 49 45 43 41 42 38 31 29 30
14 23 16 19 22 24 33 37 31 33 31 26 25 46 35 34 46 39 41 78 92 93 90 85 88 84 79 77 76 68 61 51 46 28 29 33 32 34 36 45 46 45 39 36 35 33 32 32 30
23 26 21 25 23 20 22 34 30 38 38 19 12 15 18 39 54 30 26 25 84 98 95 96 96 88 77 73 62 54 61 42 51 41 21 17 28 35 38 40 40 37 33 29 30 27 27 31 27
24 23 30 30 33 27 26 35 26 4 14 15 8 22 39 45 53 10 28 36 35 86 98 98 95 84 59 45 56 57 57 56 43 42 25 19 35 41 49 45 39 21 17 19 19 17 17 12 8
29 24 14 12 21 25 23 27 12 35 9 2 13 13 8 9 18 24 19 20 19 15 74 75 72 77 50 70 74 69 66 46 47 31 9 49 68 51 50 59 19 17 17 13 8 2 5 8 8
19 21 21 21 17 19 19 6 18 18 9 9 18 28 25 23 17 7 22 23 17 16 39 67 77 85 72 67 64 63 60 64 56 44 49 76 42 40 31 15 11 10 10 7 6 5 8 8 12
11 9 3 9 17 19 21 27 20 26 27 32 26 32 1 14 12 17 19 30 32 34 37 51 64 63 65 60 50 39 54 60 58 64 53 33 33 29 19 11 9 13 11 3 1 1 13 7 7
Wind_Direction_500mb
265 295 1 279 273 173 277 79 52 42 68 48 48 76 79 69 93 117 136 129 127 151 148 147 150 141 129 116 113 112 105 99 94 85 77 72 67 64 61 58 59 63 73 78 104 124 126 112 106
270 268 278 294 154 274 63 70 67 60 53 106 62 54 81 73 103 122 126 134 139 144 152 152 152 145 136 126 122 115 110 104 98 82 75 73 71 67 67 70 70 66 68 79 99 117 123 118 111
257 207 258 205 263 234 79 71 94 99 79 35 106 43 51 105 119 122 133 135 132 135 155 152 152 145 136 132 129 126 120 108 94 84 77 73 66 67 67 71 74 73 70 72 89 109 121 120 115
240 242 242 209 225 234 77 90 66 95 104 47 124 77 94 111 125 131 138 136 134 139 155 154 151 144 137 134 134 127 119 110 97 88 83 74 69 66 66 66 68 73 74 73 85 101 113 117 108
247 274 260 346 292 99 94 98 119 121 88 74 105 115 106 113 127 140 141 138 139 155 157 155 152 145 140 139 135 127 116 104 95 90 84 77 72 72 72 71 70 70 75 83 87 98 109 114 108
253 246 269 248 243 108 122 123 97 72 100 110 95 120 109 130 139 145 145 144 145 157 162 158 155 150 145 141 136 132 126 114 104 95 87 81 77 73 70 68 65 66 67 72 83 90 105 105 109
254 272 239 306 208 99 102 94 80 73 71 79 144 116 135 148 151 150 150 148 150 147 166 162 160 154 150 149 147 144 134 119 105 96 89 83 75 73 68 60 59 61 63 65 74 82 87 95 98
246 272 276 212 191 139 105 81 80 89 75 119 169 123 154 157 157 155 155 153 152 150 159 165 167 160 158 159 157 155 145 124 110 93 79 85 73 61 55 46 49 50 56 50 69 76 81 81 73
252 273 290 139 101 115 149 111 84 96 121 76 48 171 153 159 159 160 159 160 160 158 160 164 171 166 149 170 168 167 157 139 124 98 86 78 92 43 46 56 37 51 54 57 78 78 81 79 87
242 260 254 348 26 73 126 105 114 141 142 115 93 111 142 158 162 167 167 170 167 169 165 169 171 170 172 192 176 177 175 167 168 121 95 47 182 88 63 348 34 27 52 50 67 62 39 49 88
232 254 318 86 20 318 112 136 129 182 178 138 137 144 153 162 167 172 174 176 172 175 168 171 171 175 176 198 230 184 191 199 27 130 275 322 128 283 336 310 20 28 19 41 14 41 12 345 357
239 256 288 61 98 258 261 126 116 78 93 115 141 155 160 168 172 177 177 180 171 177 177 176 176 186 172 214 225 181 214 209 215 248 228 178 225 216 324 335 340 354 341 39 354 72 281 25 79
241 265 254 272 226 259 254 149 129 120 111 126 143 155 165 173 175 180 181 182 180 182 180 181 187 185 181 174 193 191 205 201 204 224 247 189 250 224 280 255 290 76 53 327 84 321 91 133 148
238 249 274 230 232 227 267 161 167 126 133 141 152 162 168 177 180 183 183 186 188 183 191 186 200 200 192 186 184 198 196 225 199 211 242 206 205 240 232 257 189 171 214 179 129 138 16 309 240
254 230 254 272 226 242 238 261 176 150 147 150 163 169 174 184 185 187 190 189 191 187 196 190 195 219 207 194 188 201 204 199 217 199 223 245 219 234 265 193 215 166 221 266 228 289 128 327 295
264 259 259 237 235 227 209 245 20 152 159 161 171 175 179 190 192 191 193 193 194 193 202 198 193 217 223 207 204 195 196 209 214 211 233 250 228 210 249 236 312 196 242 295 226 291 252 259 260
234 237 232 260 211 222 203 238 141 200 179 167 177 178 186 188 201 192 194 195 197 193 206 210 194 212 227 213 208 202 193 212 210 219 223 243 256 234 236 232 231 230 248 225 228 280 267 250 292
216 227 257 243 179 201 241 231 191 202 184 174 174 190 195 193 202 199 197 200 201 194 210 220 198 197 226 221 210 211 199 220 203 215 221 240 239 229 241 233 217 245 207 237 259 228 230 244 254
258 221 225 257 245 191 223 253 146 291 191 197 180 184 192 204 202 207 202 204 202 206 202 216 212 195 216 224 213 208 219 222 225 211 220 227 234 242 227 242 235 244 247 227 241 258 247 261 252
249 266 285 277 274 217 193 250 247 183 198 210 214 189 192 193 203 200 207 207 208 207 209 210 219 207 210 222 220 216 212 227 243 238 225 228 231 233 232 251 223 246 233 232 250 267 242 245 233
267 270 265 264 285 65 226 260 283 268 192 196 219 226 212 197 194 199 203 209 212 213 213 215 218 216 212 219 218 207 215 219 230 240 236 233 245 241 227 242 241 223 225 241 256 252 248 240 231
243 243 245 267 268 259 186 252 257 266 246 211 202 199 231 227 200 199 201 207 213 215 218 222 226 223 222 216 218 219 214 211 221 222 235 236 242 262 229 236 242 232 237 239 244 253 249 249 259
262 282 280 239 258 273 238 216 248 253 232 223 212 257 266 245 242 209 201 206 209 211 216 222 225 230 225 226 216 221 222 223 221 232 228 230 249 225 223 230 237 242 240 237 240 248 251 256 267
276 271 266 280 268 252 250 265 263 257 230 246 198 226 253 256 268 244 214 205 205 207 211 215 221 227 231 227 229 213 225 216 217 231 229 234 236 238 244 247 247 250 249 250 245 253 253 253 268
215 251 242 230 231 246 242 243 250 257 266 237 210 216 258 257 267 272 268 203 199 199 205 206 215 221 230 226 230 224 211 226 212 213 221 234 256 261 271 269 251 251 255 257 258 260 256 258 278
209 241 248 256 244 273 309 236 253 236 239 57 20 315 279 279 303 296 315 244 200 200 203 202 209 215 222 225 222 231 215 213 211 216 228 290 292 277 265 265 259 252 251 247 247 250 272 283 269
256 209 235 268 284 284 282 288 284 104 186 191 164 254 246 246 246 286 289 298 281 207 203 204 201 197 196 215 210 211 211 208 196 206 221 281 293 269 263 268 239 235 239 239 254 274 282 274 288
255 274 288 246 271 275 278 286 29 27 51 255 240 320 150 83 50 24 339 320 339 242 206 200 174 176 219 226 219 209 207 204 200 184 310 307 279 273 267 246 210 213 236 246 248 111 358 333 330
215 251 258 284 305 310 299 72 48 23 186 303 320 340 61 64 50 30 60 61 61 99 159 182 182 185 197 195 209 217 207 190 196 224 242 284 263 268 268 268 217 224 195 166 131 25 4 249 268
292 335 11 256 263 262 280 290 324 37 4 11 357 346 232 102 136 128 100 88 65 76 111 151 172 181 181 203 201 204 202 211 221 244 277 260 254 242 227 224 163 103 88 78 300 289 255 269 300
Wind_Speed_850mb
21 13 8 18 14 5 17 25 32 29 25 31 28 18 42 23 15 24 39 39 41 29 34 31 28 25 21 19 19 20 21 21 20 19 19 21 21 23 25 24 22 19 15 12 12 13 14 12 14
17 12 17 12 2 17 20 36 32 24 23 15 18 26 42 31 40 47 42 38 38 35 33 32 33 28 24 21 21 20 19 18 18 17 20 21 21 25 25 23 22 22 19 17 15 14 13 14 15
13 19 25 8 7 20 25 34 25 21 17 7 23 26 25 33 45 35 45 39 36 35 34 34 33 28 25 25 24 22 20 18 17 18 20 19 22 24 24 22 21 20 19 19 18 16 16 16 16
8 16 23 9 34 32 35 21 30 25 27 17 38 29 43 32 30 42 42 38 37 33 30 35 32 27 24 25 24 22 19 19 18 19 19 20 23 24 24 23 21 19 18 17 17 17 17 16 15
21 25 21 24 14 32 27 17 14 24 31 16 46 34 25 21 36 43 40 36 35 35 24 33 30 26 23 24 22 21 19 18 19 19 19 22 25 25 28 29 29 25 19 16 14 14 15 14 14
34 40 6 2 39 31 20 21 32 25 31 28 36 35 28 27 40 40 36 35 37 26 27 33 30 25 23 22 21 19 19 18 19 19 19 22 26 28 28 26 25 24 23 20 16 12 10 11 13
30 26 22 20 16 30 14 44 11 31 32 27 33 33 29 34 37 37 35 33 38 27 29 33 29 24 22 21 19 17 16 18 17 17 19 22 25 27 28 28 26 22 19 20 18 16 15 15 16
44 28 44 34 9 16 21 35 18 37 27 17 20 18 36 40 39 36 35 34 35 34 24 28 29 24 21 20 19 16 15 15 15 15 16 18 22 22 25 25 24 23 23 19 15 18 20 22 19
43 26 27 6 11 23 21 34 32 26 22 25 9 9 48 45 41 36 36 34 34 36 32 29 24 22 18 15 18 17 14 12 12 15 15 15 12 14 17 23 26 22 30 30 15 22 22 26 34
30 27 26 14 18 20 20 36 24 22 26 29 33 45 48 46 44 40 37 37 35 34 35 36 28 23 29 18 15 17 15 12 9 11 11 12 4 8 5 14 22 18 17 25 25 16 14 10 9
39 34 27 5 11 17 42 29 19 23 7 37 37 38 40 45 42 40 36 35 35 33 33 40 32 27 36 30 13 8 5 4 3 1 8 8 8 10 19 12 10 18 9 23 14 16 16 17 13
33 39 26 17 9 14 15 31 17 21 36 33 34 38 41 42 41 38 36 34 35 34 34 33 36 37 28 25 13 17 16 11 8 11 16 7 14 12 8 9 3 13 9 12 13 8 2 6 2
31 33 20 9 8 25 16 30 25 30 40 33 36 38 40 40 39 37 35 33 35 37 35 31 39 42 39 26 19 25 21 23 15 19 13 19 12 10 7 5 7 8 5 5 7 4 3 3 3
34 34 44 17 17 17 25 17 20 39 42 40 37 38 39 40 39 38 38 37 36 39 42 39 30 45 53 41 25 31 28 23 25 20 21 19 15 14 14 13 11 9 5 8 4 9 1 2 6
42 21 35 29 19 16 22 24 25 38 41 45 38 36 38 38 38 40 39 40 40 40 43 46 38 38 43 51 41 30 26 23 21 22 25 23 17 10 10 3 8 13 12 11 11 6 6 5 9
32 29 28 37 29 31 18 30 26 22 44 43 40 39 37 37 39 39 39 41 42 39 48 45 42 40 39 44 44 36 28 28 26 24 28 22 19 16 8 16 3 15 6 5 7 13 5 8 14
26 31 36 39 41 20 27 24 36 44 38 43 37 37 38 40 41 44 43 44 45 44 49 44 48 47 42 42 40 37 32 35 31 29 28 31 20 16 18 21 13 20 19 12 13 15 10 10 12
25 32 36 30 24 22 29 25 44 59 41 46 45 39 40 46 47 48 47 48 47 52 48 49 53 50 49 37 41 38 42 41 40 33 30 32 24 20 26 19 21 20 15 14 18 20 17 15 22
36 40 37 32 31 29 23 25 22 18 33 34 49 51 50 47 51 51 52 54 56 54 55 51 50 58 55 53 47 45 40 39 35 38 36 36 36 28 31 27 27 34 19 17 23 23 14 13 14
40 39 25 32 37 17 17 28 25 50 41 35 37 52 53 54 52 61 58 60 63 65 64 63 58 58 62 58 49 41 39 32 30 30 39 45 41 36 33 32 27 29 15 22 33 27 22 22 14
22 26 24 34 25 6 7 25 27 33 37 33 33 28 46 57 65 62 67 67 67 71 74 73 73 68 67 65 51 45 38 37 41 42 36 42 38 42 36 36 30 32 32 31 31 28 20 20 19
27 29 34 36 31 22 23 22 26 33 24 20 35 44 50 42 65 71 74 77 79 72 74 80 76 77 70 66 60 55 60 53 53 41 41 43 33 38 43 48 41 38 40 31 39 30 26 24 19
28 27 22 30 33 34 27 18 24 19 25 37 20 41 38 42 49 70 81 84 85 83 77 81 81 74 76 71 67 57 53 51 44 36 39 36 42 45 47 50 49 43 37 38 40 35 32 31 28
15 19 25 22 20 27 36 34 32 26 26 19 30 37 43 45 50 59 74 86 90 87 86 83 84 80 77 76 69 67 63 52 36 41 38 30 22 32 41 47 49 45 43 41 42 38 31 29 30
14 23 16 19 22 24 33 37 31 33 31 26 25 46 35 34 46 39 41 78 92 93 90 85 88 84 79 77 76 68 61 51 46 28 29 33 32 34 36 45 46 45 39 36 35 33 32 32 30
23 26 21 25 23 20 22 34 30 38 38 19 12 15 18 39 54 30 26 25 84 98 95 96 96 88 77 73 62 54 61 42 51 41 21 17 28 35 38 40 40 37 33 29 30 27 27 31 27
24 23 30 30 33 27 26 35 26 4 14 15 8 22 39 45 53 10 28 36 35 86 98 98 95 84 59 45 56 57 57 56 43 42 25 19 35 41 49 45 39 21 17 19 19 17 17 12 8
29 24 14 12 21 25 23 27 12 35 9 2 13 13 8 9 18 24 19 20 19 15 74 75 72 77 50 70 74 69 66 46 47 31 9 49 68 51 50 59 19 17 17 13 8 2 5 8 8
19 21 21 21 17 19 19 6 18 18 9 9 18 28 25 23 17 7 22 23 17 16 39 67 77 85 72 67 64 63 60 64 56 44 49 76 42 40 31 15 11 10 10 7 6 5 8 8 12
11 9 3 9 17 19 21 27 20 26 27 32 26 32 1 14 12 17 19 30 32 34 37 51 64 63 65 60 50 39 54 60 58 64 53 33 33 29 19 11 9 13 11 3 1 1 13 7 7
Wind_Direction_850mb
265 295 1 279 273 173 277 79 52 42 68 48 48 76 79 69 93 117 136 129 127 151 148 147 150 141 129 116 113 112 105 99 94 85 77 72 67 64 61 58 59 63 73 78 104 124 126 112 106
270 268 278 294 154 274 63 70 67 60 53 106 62 54 81 73 103 122 126 134 139 144 152 152 152 145 136 126 122 115 110 104 98 82 75 73 71 67 67 70 70 66 68 79 99 117 123 118 111
257 207 258 205 263 234 79 71 94 99 79 35 106 43 51 105 119 122 133 135 132 135 155 152 152 145 136 132 129 126 120 108 94 84 77 73 66 67 67 71 74 73 70 72 89 109 121 120 115
240 242 242 209 225 234 77 90 66 95 104 47 124 77 94 111 125 131 138 136 134 139 155 154 151 144 137 134 134 127 119 110 97 88 83 74 69 66 66 66 68 73 74 73 85 101 113 117 108
247 274 260 346 292 99 94 98 119 121 88 74 105 115 106 113 127 140 141 138 139 155 157 155 152 145 140 139 135 127 116 104 95 90 84 77 72 72 72 71 70 70 75 83 87 98 109 114 108
253 246 269 248 243 108 122 123 97 72 100 110 95 120 109 130 139 145 145 144 145 157 162 158 155 150 145 141 136 132 126 114 104 95 87 81 77 73 70 68 65 66 67 72 83 90 105 105 109
254 272 239 306 208 99 102 94 80 73 71 79 144 116 135 148 151 150 150 148 150 147 166 162 160 154 150 149 147 144 134 119 105 96 89 83 75 73 68 60 59 61 63 65 74 82 87 95 98
246 272 276 212 191 139 105 81 80 89 75 119 169 123 154 157 157 155 155 153 152 150 159 165 167 160 158 159 157 155 145 124 110 93 79 85 73 61 55 46 49 50 56 50 69 76 81 81 73
252 273 290 139 101 115 149 111 84 96 121 76 48 171 153 159 159 160 159 160 160 158 160 164 171 166 149 170 168 167 157 139 124 98 86 78 92 43 46 56 37 51 54 57 78 78 81 79 87
242 260 254 348 26 73 126 105 114 141 142 115 93 111 142 158 162 167 167 170 167 169 165 169 171 170 172 192 176 177 175 167 168 121 95 47 182 88 63 348 34 27 52 50 67 62 39 49 88
232 254 318 86 20 318 112 136 129 182 178 138 137 144 153 162 167 172 174 176 172 175 168 171 171 175 176 198 230 184 191 199 27 130 275 322 128 283 336 310 20 28 19 41 14 41 12 345 357
239 256 288 61 98 258 261 126 116 78 93 115 141 155 160 168 172 177 177 180 171 177 177 176 176 186 172 214 225 181 214 209 215 248 228 178 225 216 324 335 340 354 341 39 354 72 281 25 79
241 265 254 272 226 259 254 149 129 120 111 126 143 155 165 173 175 180 181 182 180 182 180 181 187 185 181 174 193 191 205 201 204 224 247 189 250 224 280 255 290 76 53 327 84 321 91 133 148
238 249 274 230 232 227 267 161 167 126 133 141 152 162 168 177 180 183 183 186 188 183 191 186 200 200 192 186 184 198 196 225 199 211 242 206 205 240 232 257 189 171 214 179 129 138 16 309 240
254 230 254 272 226 242 238 261 176 150 147 150 163 169 174 184 185 187 190 189 191 187 196 190 195 219 207 194 188 201 204 199 217 199 223 245 219 234 265 193 215 166 221 266 228 289 128 327 295
264 259 259 237 235 227 209 245 20 152 159 161 171 175 179 190 192 191 193 193 194 193 202 198 193 217 223 207 204 195 196 209 214 211 233 250 228 210 249 236 312 196 242 295 226 291 252 259 260
234 237 232 260 211 222 203 238 141 200 179 167 177 178 186 188 201 192 194 195 197 193 206 210 194 212 227 213 208 202 193 212 210 219 223 243 256 234 236 232 231 230 248 225 228 280 267 250 292
216 227 257 243 179 201 241 231 191 202 184 174 174 190 195 193 202 199 197 200 201 194 210 220 198 197 226 221 210 211 199 220 203 215 221 240 239 229 241 233 217 245 207 237 259 228 230 244 254
258 221 225 257 245 191 223 253 146 291 191 197 180 184 192 204 202 207 202 204 202 206 202 216 212 195 216 224 213 208 219 222 225 211 220 227 234 242 227 242 235 244 247 227 241 258 247 261 252
249 266 285 277 274 217 193 250 247 183 198 210 214 189 192 193 203 200 207 207 208 207 209 210 219 207 210 222 220 216 212 227 243 238 225 228 231 233 232 251 223 246 233 232 250 267 242 245 233
267 270 265 264 285 65 226 260 283 268 192 196 219 226 212 197 194 199 203 209 212 213 213 215 218 216 212 219 218 207 215 219 230 240 236 233 245 241 227 242 241 223 225 241 256 252 248 240 231
243 243 245 267 268 259 186 252 257 266 246 211 202 199 231 227 200 199 201 207 213 215 218 222 226 223 222 216 218 219 214 211 221 222 235 236 242 262 229 236 242 232 237 239 244 253 249 249 259
262 282 280 239 258 273 238 216 248 253 232 223 212 257 266 245 242 209 201 206 209 211 216 222 225 230 225 226 216 221 222 223 221 232 228 230 249 225 223 230 237 242 240 237 240 248 251 256 267
276 271 266 280 268 252 250 265 263 257 230 246 198 226 253 256 268 244 214 205 205 207 211 215 221 227 231 227 229 213 225 216 217 231 229 234 236 238 244 247 247 250 249 250 245 253 253 253 268
215 251 242 230 231 246 242 243 250 257 266 237 210 216 258 257 267 272 268 203 199 199 205 206 215 221 230 226 230 224 211 226 212 213 221 234 256 261 271 269 251 251 255 257 258 260 256 258 278
209 241 248 256 244 273 309 236 253 236 239 57 20 315 279 279 303 296 315 244 200 200 203 202 209 215 222 225 222 231 215 213 211 216 228 290 292 277 265 265 259 252 251 247 247 250 272 283 269
256 209 235 268 284 284 282 288 284 104 186 191 164 254 246 246 246 286 289 298 281 207 203 204 201 197 196 215 210 211 211 208 196 206 221 281 293 269 263 268 239 235 239 239 254 274 282 274 288
255 274 288 246 271 275 278 286 29 27 51 255 240 320 150 83 50 24 339 320 339 242 206 200 174 176 219 226 219 209 207 204 200 184 310 307 279 273 267 246 210 213 236 246 248 111 358 333 330
215 251 258 284 305 310 299 72 48 23 186 303 320 340 61 64 50 30 60 61 61 99 159 182 182 185 197 195 209 217 207 190 196 224 242 284 263 268 268 268 217 224 195 166 131 25 4 249 268
292 335 11 256 263 262 280 290 324 37 4 11 357 346 232 102 136 128 100 88 65 76 111 151 172 181 181 203 201 204 202 211 221 244 277 260 254 242 227 224 163 103 88 78 300 289 255 269 300